Location: ??
(36.7391°N, 127.5151°E)
Time: 00:47:34
(UTC+00:00)

Daily predictions for brighter satellites

Satellite Brightness Start Highest point End
(mag) Time Altitude Azimuth Time Altitude Azimuth Time Altitude Azimuth
Okean 3 3.6 11:09:34 10° S 11:13:52 85° W 11:18:11 10° N
STARLINK-1083 4.4 11:11:22 10° WNW 11:15:21 48° SW 11:19:19 10° SSE
CZ-2C R/B 4.0 11:11:32 10° NNE 11:15:57 49° E 11:20:26 10° S
Okean 2 Rocket 3.2 11:13:30 10° N 11:17:51 61° E 11:22:11 10° SSE
IRS-1A Rocket 4.4 11:12:34 10° SSE 11:18:20 86° WSW 11:24:00 10° NNW
FALCON 9 DEB 3.6 11:15:34 10° SSW 11:18:45 38° SE 11:21:57 10° ENE
Cosmos 1544 4.4 11:16:47 10° NNW 11:20:12 41° W 11:23:34 10° SSW
Cosmos 1300 Rocket 3.7 11:17:04 10° N 11:21:27 58° E 11:25:46 10° SSE
Sich 1 Rocket 4.0 11:17:11 10° NNW 11:21:46 70° W 11:26:15 10° S
Cosmos 1975 4.2 11:19:54 10° NNW 11:23:40 40° W 11:27:24 10° SSW
STARLINK-1123 4.4 11:23:41 10° NW 11:27:38 42° NE 11:31:35 10° ESE
MONITOR-E 3.8 11:25:54 10° S 11:28:24 76° WSW 11:30:57 10° NNW
BREEZE-M DEB (TANK) 3.3 11:26:35 10° S 11:28:30 23° SE 11:31:39 10° ENE
Cosmos 1634 Rocket 4.2 11:22:15 10° N 11:28:37 81° W 11:34:55 10° S
Cosmos 1833 Rocket 3.8 11:24:46 10° NW 11:30:04 44° WSW 11:35:20 10° S
Resurs 01 Rocket 2.6 11:26:13 10° SE 11:30:07 31° ENE 11:34:01 10° N
NOSS 2-2 (D) 4.2 11:26:52 10° SW 11:30:21 49° NW 11:33:59 10° NNE
STARLINK-1097 4.2 11:28:38 10° NW 11:32:39 47° NE 11:36:25 11° ESE
BREEZE-M DEB 1.7 11:30:37 10° SW 11:32:45 83° NW 11:35:26 10° NE
SJ-6B 2.9 11:30:07 10° S 11:33:48 71° W 11:37:33 10° NNW
BREEZE-M DEB (TANK) 4.2 11:32:11 10° W 11:34:01 21° SW 11:36:11 10° SSE
Cosmos 2151 Rocket 3.7 11:29:31 10° N 11:34:02 64° E 11:38:29 10° SSE
USA 186 3.1 11:31:33 10° SSW 11:34:02 33° W 11:36:43 10° NNW
GPS 2-04 Rocket1 3.5 11:33:03 10° W 11:36:05 30° SSW 11:38:41 13° SE
STARLINK-1099 4.1 11:33:34 10° NW 11:37:37 51° NE 11:41:11 13° ESE
Cosmos 1378 Rocket 3.8 11:35:32 10° SSE 11:39:46 50° E 11:44:00 10° NNE
Resurs 1-3 3.7 11:35:57 10° SSE 11:40:16 61° ENE 11:44:36 10° N
Cosmos 1674 Rocket 3.5 11:36:11 10° S 11:40:32 71° E 11:44:57 10° NNE
STARLINK-1104 4.0 11:38:31 10° NW 11:42:36 57° NE 11:45:58 14° ESE
STARLINK-1352 4.4 11:40:04 10° S 11:43:26 26° SE 11:46:48 10° ENE
STARLINK-29 4.2 11:41:54 10° WSW 11:45:01 45° NW 11:48:08 10° NE
Aureole 2 4.2 11:44:40 10° N 11:47:34 54° ENE 11:49:34 18° SE
STARLINK-1144 3.8 11:43:28 10° NW 11:47:35 63° NE 11:50:45 16° ESE
Intercosmos 24 4.0 11:44:15 10° N 11:48:02 87° E 11:52:58 10° S
STARLINK-1368 4.3 11:45:32 10° S 11:49:02 30° SE 11:52:34 10° ENE
Cosmos 2082 Rocket 2.9 11:43:47 10° NNW 11:49:18 52° WSW 11:54:46 10° S
Cosmos 2369 Rocket 2.4 11:43:58 10° S 11:49:23 48° ESE 11:54:47 10° NNE
NOSS 3-4 (A) 3.9 11:45:24 10° S 11:50:43 36° ESE 11:56:11 10° NE
NOSS 3-4 (C) 3.9 11:45:31 10° S 11:50:49 36° ESE 11:56:17 10° NE
MOS 1 Rocket 4.3 11:47:52 10° N 11:51:57 44° WNW 11:56:02 10° SW
STARLINK-1103 3.7 11:48:26 10° NW 11:52:35 70° NE 11:55:32 18° ESE
STARLINK-1369 4.1 11:49:55 10° SSW 11:53:31 33° SE 11:57:09 10° ENE
